Overview Statistics Trail Chart Weather Telemetry Raw packets
 

This is the latest recevied weather packets stored in our database for station/object W8KVG. If no packets are shown the sender has not sent any weather packets the latest 10 day(s).

<< 60 61 62 63 64 65 66 >>
Time Temp. Humidity Pressure Rain* Wind** Luminosity Snow
1777477790 15° C 99% 1007.3 hPa 0 mm - 172 W/m² -
1777477486 15° C 99% 1007.4 hPa 0 mm - 169 W/m² -
1777477183 14.44° C 99% 1007.5 hPa 0 mm - 160 W/m² -
1777476879 14.44° C 99% 1007.7 hPa 0 mm - 152 W/m² -
1777476577 13.89° C 99% 1007.8 hPa 0 mm - 105 W/m² -
1777476273 13.89° C 99% 1008 hPa 0 mm - 94 W/m² -
1777475968 13.89° C 99% 1008.2 hPa 0 mm - 67 W/m² -
1777475665 13.89° C 99% 1008.1 hPa 0 mm - 73 W/m² -
1777475362 13.89° C 99% 1008.2 hPa 0 mm - 51 W/m² -
1777475056 13.89° C 99% 1008.1 hPa 0 mm - 53 W/m² -
1777474753 13.89° C 99% 1008.3 hPa 0 mm - 77 W/m² -
1777474449 13.89° C 99% 1008.2 hPa 0 mm - 82 W/m² -
1777474146 13.33° C 99% 1008.4 hPa 0 mm - 99 W/m² -
1777473844 13.33° C 99% 1008.4 hPa 0 mm - 81 W/m² -
1777473541 13.33° C 99% 1008.4 hPa 0 mm - 79 W/m² -
1777473236 13.33° C 99% 1008.4 hPa 0 mm - 68 W/m² -
1777472933 13.33° C 99% 1008.3 hPa 0 mm - 54 W/m² -
1777472629 12.78° C 99% 1008.3 hPa 0 mm - 75 W/m² -
1777472326 12.78° C 99% 1008.2 hPa 0 mm - 50 W/m² -
1777472024 12.78° C 99% 1008.3 hPa 0 mm - 33 W/m² -
1777471719 12.78° C 99% 1008.3 hPa 0 mm - 24 W/m² -
1777471416 12.78° C 99% 1008.4 hPa 0 mm - 22 W/m² -
1777471113 12.78° C 99% 1008.6 hPa 0 mm - 24 W/m² -
1777470816 12.78° C 99% 1009.1 hPa 0 mm - 35 W/m² -
1777470507 12.78° C 99% 1008.7 hPa 0 mm - 43 W/m² -

* Rain latest hour (hover to see other rain measurements)
** Current wind speed in m/s (hover to see current wind gust speed)